Location: Coupvray
(48.8929°N, 2.7967°E)
Time: 04:42:42
(UTC+00:00)

SL-8 R/B - Pass Details

Date: 14 July 2020
Orbit: 656 x 668 km, 48.4° (Epoch: 06 August)

Event Time Altitude Azimuth Distance (km) Brightness Sun altitude
Exits shadow 01:46:36 22° 235° (SW) 1,452 4.9 -15.2°
Maximum altitude 01:49:38 62° 161° (SSE) 750 3.7 -15.0°
Drops below altitude 10° 01:54:22 10° 81° (E) 2,081 6.8 -14.6°
Sets 01:56:44 0° 78° (ENE) 2,993 7.7 -14.4°
